Regional Weather Roundup
Issued by NWS

Home | Current Version | Previous Version | Text Only | Print | Product List | Glossary On
Versions: 1 2 3 4 5 6 7 8 9 10 11 12 13 14 15 16 17 18 19 20 21 22 23 24 25 26 27 28 29 30 31 32 33 34 35 36 37 38 39 40 41 42 43 44 45 46 47 48 49 50
000
ASUS43 KMPX 290910
RWRMN
WEATHER ROUNDUP FOR MINNESOTA
NATIONAL WEATHER SERVICE TWIN CITIES/CHANHASSEN MN
400 AM CDT FRI AUG 29 2014


NOTE: "FAIR" INDICATES FEW OR NO CLOUDS BELOW 12,000 FEET WITH NO
SIGNIFICANT WEATHER AND/OR OBSTRUCTIONS TO VISIBILITY. N/A MEANS
CURRENT SKY AND/OR WEATHER CONDITIONS ARE NOT AVAILABLE.

MNZ060>063-068>070-291000-
   Twin Cities Metro

CITY           SKY/WX    TMP DP  RH WIND       PRES   REMARKS
TWIN CITIES    CLOUDY    67  66  97 SE10      29.82S
ST PAUL        LGT RAIN  67  66  97 SE10      29.83S FOG
CRYSTAL        LGT RAIN  68  65  90 SE8       29.80F FOG
BLAINE         LGT RAIN  68  68 100 SE7       29.82S
LAKEVILLE      CLOUDY    66  66 100 SE7       29.83S
EDEN PRAIRIE   CLOUDY    68  67  96 SE8       29.80F
SOUTH ST PAUL  TSTM      67  65  94 SE5       29.83S
LAKE ELMO      TSTM      66  64  94 SE7       29.85S
$$
MNZ001>005-007-008-013>017-022>024-027-028-291000-
   Northwest Minnesota

CITY           SKY/WX    TMP DP  RH WIND       PRES   REMARKS
BEMIDJI        DRIZZLE   64  62  94 SE3       29.84S
HALLOCK        CLOUDY    66  64  94 S9        29.78S
ROSEAU         MOCLDY    64  59  82 S7        29.80F
WARROAD        MOCLDY    63  59  88 S5        29.81F
THIEF RVR FALL CLOUDY    63  61  94 SE5       29.81F
CROOKSTON      CLOUDY    64  63  94 S5        29.80F
FOSSTON        DRIZZLE   63  61  94 CALM      29.83S
DETROIT LAKES  DRIZZLE   64  63  94 SE6       29.82F
MOORHEAD       CLOUDY    66  66 100 CALM      29.80S
PARK RAPIDS    RAIN      64  63  96 SE5       29.82F FOG
MAHNOMEN       DRIZZLE   64  63  97 CALM      29.81F
$$
MNZ006-009>011-018-025>026-291000-
   North Central Minnesota

CITY           SKY/WX    TMP DP  RH WIND       PRES   REMARKS
BAUDETTE       CLOUDY    63  61  93 CALM      29.83F
FLAG ISLAND    CLOUDY    66  63  88 S12       29.80F
INTL FALLS     CLOUDY    59  58  96 SE3       29.85F
WASKISH        CLOUDY    64  61  88 CALM      29.84S
BIG FORK       LGT RAIN  61  59  94 SE3       29.86
LONGVILLE      LGT RAIN  63  63 100 SE3       29.84R
GRAND RAPIDS   CLOUDY    61  57  88 SE5       29.85F
CRANE LAKE     LGT RAIN  57  57 100 CALM      29.90R
ORR            LGT RAIN  59  55  88 CALM      29.86R
COOK           LGT RAIN  61  57  88 CALM      29.89R
WALKER         LGT RAIN  63  62  97 CALM      29.83S
$$
MNZ012-019>021-037-291000-
   Northeast Minnesota

CITY           SKY/WX    TMP DP  RH WIND       PRES   REMARKS
DULUTH         CLOUDY    61  57  87 E7        29.87F
ELY            CLOUDY    59  54  82 SE3       29.89F
HIBBING        CLOUDY    60  57  89 SE5       29.87F
EVELETH        CLOUDY    57  55  94 CALM      29.89F
DULUTH HARBOR  CLOUDY    63  61  94 NE10      29.87F
TWO HARBORS    CLOUDY    57  54  88 NE3       29.87F
SILVER BAY     CLOUDY    57  55  94 NE3       29.88F
GRAND MARAIS     N/A     60  54  80 NE5       29.91F
G MARAIS ARPRT CLOUDY    55  52  88 CALM      29.94F
$$
MNZ029>031-032-039>041-046>048-054>057-064-291000-
   West Central Minnesota

CITY           SKY/WX    TMP DP  RH WIND       PRES   REMARKS
FERGUS FALLS   CLOUDY    66  64  94 S5        29.80S FOG
WHEATON        CLOUDY    63  63 100 SE7       29.80F FOG
MORRIS         CLOUDY    64  64 100 E5        29.79S FOG
ALEXANDRIA     RAIN      64  63  96 SE3       29.82F FOG
ELBOW LAKE     FOG       64  64  99 SE3       29.80F VSB 3/4
WADENA         LGT RAIN  63  63 100 SE5       29.81F
GLENWOOD       CLOUDY    64  63  94 E6        29.81F FOG
APPLETON       DRIZZLE   66  64  94 CALM      29.78S
BENSON         CLOUDY    64  64 100 E3        29.78F FOG
ORTONVILLE     FOG       64  63  94 E3        29.79S VSB 1/2
MADISON        FOG       68  66  94 CALM      29.77F VSB 3/4
WILLMAR        CLOUDY    66  64  94 CALM      29.80F FOG
$$
MNZ033>034-036-042>043-049>051-058-059-291000-
   Central Minnesota

CITY           SKY/WX    TMP DP  RH WIND       PRES   REMARKS
ST CLOUD       CLOUDY    67  65  93 E3        29.80F FOG
SAUK CENTRE    DRIZZLE   64  64  99 CALM      29.81F
PAYNESVILLE    LGT RAIN  62  63 100 E3        29.80F
AITKIN         CLOUDY    66  61  82 CALM      29.83F HAZE
PINE RIVER     DRIZZLE   63  63 100 SE5       29.87S
BRAINERD       CLOUDY    62  62 100 CALM      29.83F FOG
STAPLES        CLOUDY    63  63 100 CALM      29.82F FOG
LONG PRAIRIE   LGT RAIN  63  63 100 E3        29.81F
LITTLE FALLS   CLOUDY    63  61  94 E3        29.81F FOG
LITCHFIELD     DRIZZLE   66  66 100 SE3       29.80F
BUFFALO        CLOUDY    66  64  93 E3        29.81F
MAPLE LAKE     CLOUDY    67  66  97 E3        29.81F
$$
MNZ037-044-045-052-053-291000-
   East Central Minnesota

CITY           SKY/WX    TMP DP  RH WIND       PRES   REMARKS
PRINCETON      CLOUDY    66  64  94 E5        29.81F
MORA           RAIN      63  61  94 SE5       29.85S
CAMBRIDGE      RAIN      66  59  77 SE5       29.81S
RUSH CITY      CLOUDY    64  63  95 SE7       29.84F
MOOSE LAKE     RAIN      63  61  94 CALM      29.84F
HINCKLEY       DRIZZLE   63  63 100 E5        29.85S
CLOQUET        CLOUDY    61  57  88 E5        29.87F
MCGREGOR       CLOUDY    63  61  94 SE5       29.85F
$$
MNZ071>073-080-081-089-090-097-098-291000-
   Southwest Minnesota

CITY           SKY/WX    TMP DP  RH WIND       PRES   REMARKS
MONTEVIDEO     FOG       64  64 100 CALM      29.79S VSB 1/2
GRANITE FALLS  FOG       66  67 100 SE3       29.78F VSB 1/2
CANBY          FOG       66  65  97 E3        29.78F VSB 1/4
MARSHALL       CLOUDY    66  64  94 SE6       29.75F VSB 1/2
REDWOOD FALLS  CLOUDY    68  67  96 SE10      29.77F FOG
OLIVIA         FOG       68  64  88 SE7       29.77F VSB 1/2
PIPESTONE      CLOUDY    72  70  94 S8        29.79R FOG
WINDOM         CLOUDY    72  70  94 S10       29.80F
WORTHINGTON    MOCLDY    72  70  94 S13       29.80F
JACKSON        CLOUDY    70  64  83 S10       29.83S
TRACY          MOCLDY    71  70  98 S7        29.77F FOG
SLAYTON        MOCLDY    69  69  99 CALM      29.79F FOG
$$
MNZ065>067-074>077-082>085-091>093-291000-
   South Central Minnesota

CITY           SKY/WX    TMP DP  RH WIND       PRES   REMARKS
MANKATO        CLOUDY    75  66  73 S7        29.81S
NEW ULM        CLOUDY    70  70 100 S8        29.78F FOG
ST JAMES       CLOUDY    72  70  94 S12       29.81S
FAIRMONT       CLOUDY    66  64  94 S14       29.82F
GLENCOE        CLOUDY    69  66  91 SE5       29.79F FOG
FARIBAULT      CLOUDY    72  66  83 SE5       29.83S
OWATONNA       CLOUDY    70  66  88 S5        29.83F
WASECA         CLOUDY    68  64  88 S5        29.84S
ALBERT LEA     CLOUDY    68  68 100 S9G16     29.83F
$$
MNZ078>079-086>088-094>096-291000-
   Southeast Minnesota

CITY           SKY/WX    TMP DP  RH WIND       PRES   REMARKS
ROCHESTER      CLOUDY    68  66  93 S9        29.87F FOG
RED WING       RAIN      66  64  94 SE7       29.85R
STANTON        CLOUDY    69  66  90 SE3       29.83S
DODGE CENTER   CLOUDY    70  66  88 S9        29.85F FOG
WINONA         CLOUDY    63  63 100 SE6       29.90R THUNDER
AUSTIN         LGT RAIN  68  66  94 S6        29.85F
PRESTON        DRIZZLE   66  67 100 CALM      29.89S
$$
ABBREVIATIONS USED IN REMARKS
   TC - TEMPERATURES IN CELSIUS
  WCI - WIND CHILL INDEX
   HX - HEAT INDEX
  VSB - VISIBILITY
$$


USA.gov is the U.S. government's official web portal to all federal, state and local government web resources and services.